Stündliche Wetter Dzierżoniów

Heute, 14 Juni, Montag

Zeit Temperatur Niederschläge Wind Luftdruck Luftfeuchtigkeit
00:00 +10°C° 0 mm 1 m/S 744 mmHg 85%
01:00 +10°C° 0 mm 1 m/S 744 mmHg 83%
02:00 +10°C° 0 mm 1 m/S 744 mmHg 85%
03:00 +9°C° 0 mm 1 m/S 744 mmHg 88%
04:00 +8°C° 0 mm 1 m/S 744 mmHg 90%
05:00 +10°C° 0 mm 1 m/S 744 mmHg 84%
06:00 +12°C° 0 mm 1 m/S 744 mmHg 79%
07:00 +14°C° 0 mm 1 m/S 744 mmHg 74%
08:00 +15°C° 0 mm 2 m/S 744 mmHg 69%
09:00 +16°C° 0 mm 2 m/S 744 mmHg 63%
10:00 +18°C° 0 mm 2 m/S 744 mmHg 58%
11:00 +19°C° 0 mm 2 m/S 743 mmHg 55%
12:00 +19°C° 0 mm 2 m/S 743 mmHg 53%
13:00 +21°C° 0 mm 1 m/S 743 mmHg 50%
14:00 +21°C° 0 mm 1 m/S 742 mmHg 50%
15:00 +22°C° 0 mm 1 m/S 742 mmHg 50%
16:00 +22°C° 0 mm 1 m/S 742 mmHg 50%
17:00 +21°C° 0 mm 1 m/S 742 mmHg 56%
18:00 +20°C° 0 mm 1 m/S 741 mmHg 63%
19:00 +19°C° 0 mm 1 m/S 741 mmHg 70%
20:00 +16°C° 0 mm 1 m/S 741 mmHg 73%
21:00 +15°C° 0 mm 1 m/S 741 mmHg 76%
22:00 +13°C° 0 mm 2 m/S 741 mmHg 79%
23:00 +13°C° 0 mm 2 m/S 741 mmHg 80%

Morgen, 15 Juni, Dienstag

Zeit Temperatur Niederschläge Wind Luftdruck Luftfeuchtigkeit
00:00 +13°C° 0 mm 2 m/S 741 mmHg 81%
01:00 +12°C° 0 mm 2 m/S 741 mmHg 82%
02:00 +12°C° 0 mm 2 m/S 740 mmHg 83%
03:00 +13°C° 0 mm 2 m/S 740 mmHg 84%
04:00 +13°C° 0 mm 2 m/S 740 mmHg 84%
05:00 +14°C° 0 mm 1 m/S 740 mmHg 80%
06:00 +16°C° 0 mm 1 m/S 741 mmHg 75%
07:00 +19°C° 0 mm 1 m/S 741 mmHg 71%
08:00 +20°C° 0 mm 1 m/S 741 mmHg 66%
09:00 +22°C° 0 mm 1 m/S 741 mmHg 62%
10:00 +23°C° 0 mm 1 m/S 741 mmHg 58%
11:00 +24°C° 0 mm 1 m/S 740 mmHg 56%
12:00 +24°C° 0 mm 1 m/S 740 mmHg 55%
13:00 +25°C° 0 mm 2 m/S 740 mmHg 54%
14:00 +25°C° 0 mm 2 m/S 740 mmHg 56%
15:00 +24°C° 0 mm 2 m/S 740 mmHg 58%
16:00 +24°C° 0 mm 2 m/S 740 mmHg 61%
17:00 +23°C° 0 mm 1 m/S 740 mmHg 66%
18:00 +22°C° 0 mm 1 m/S 740 mmHg 72%
19:00 +21°C° 0 mm 1 m/S 740 mmHg 78%
20:00 +20°C° 0 mm 1 m/S 740 mmHg 80%
21:00 +19°C° 0 mm 1 m/S 740 mmHg 83%
22:00 +18°C° 0 mm 1 m/S 740 mmHg 85%
23:00 +18°C° 0 mm 1 m/S 740 mmHg 88%

übermorgen, 16 Juni, Mittwoch

Zeit Temperatur Niederschläge Wind Luftdruck Luftfeuchtigkeit
00:00 +16°C° 0 mm 1 m/S 740 mmHg 90%
01:00 +15°C° 0 mm 1 m/S 740 mmHg 93%
02:00 +15°C° 0 mm 1 m/S 740 mmHg 94%
03:00 +15°C° 0 mm 1 m/S 741 mmHg 95%
04:00 +14°C° 0 mm 1 m/S 741 mmHg 96%
05:00 +16°C° 0 mm 1 m/S 741 mmHg 93%
06:00 +18°C° 0 mm 1 m/S 741 mmHg 90%
07:00 +19°C° 0 mm 1 m/S 741 mmHg 87%
08:00 +20°C° 0 mm 1 m/S 741 mmHg 82%
09:00 +20°C° 0 mm 2 m/S 741 mmHg 77%
10:00 +23°C° 0 mm 2 m/S 741 mmHg 72%
11:00 +23°C° 0.1 mm 2 m/S 741 mmHg 70%
12:00 +24°C° 0.1 mm 2 m/S 741 mmHg 67%
13:00 +24°C° 0.1 mm 3 m/S 741 mmHg 65%
14:00 +24°C° 0 mm 3 m/S 741 mmHg 67%
15:00 +24°C° 0 mm 3 m/S 741 mmHg 69%
16:00 +22°C° 0 mm 3 m/S 741 mmHg 71%
17:00 +22°C° 0 mm 3 m/S 740 mmHg 75%
18:00 +21°C° 0 mm 2 m/S 740 mmHg 79%
19:00 +21°C° 0 mm 2 m/S 740 mmHg 82%
20:00 +19°C° 0 mm 2 m/S 740 mmHg 86%
21:00 +18°C° 0 mm 2 m/S 740 mmHg 89%
22:00 +18°C° 0 mm 1 m/S 740 mmHg 92%
23:00 +16°C° 0 mm 1 m/S 740 mmHg 93%

17 Juni, Donnerstag

Zeit Temperatur Niederschläge Wind Luftdruck Luftfeuchtigkeit
00:00 +16°C° 0 mm 1 m/S 740 mmHg 93%
01:00 +16°C° 0 mm 1 m/S 740 mmHg 94%
02:00 +15°C° 0 mm 1 m/S 740 mmHg 94%
03:00 +15°C° 0 mm 1 m/S 740 mmHg 94%
04:00 +15°C° 0 mm 1 m/S 740 mmHg 95%
05:00 +17°C° 0 mm 2 m/S 740 mmHg 90%
06:00 +18°C° 0 mm 2 m/S 740 mmHg 85%
07:00 +20°C° 0 mm 2 m/S 741 mmHg 80%
08:00 +21°C° 0 mm 3 m/S 741 mmHg 74%
09:00 +24°C° 0 mm 3 m/S 741 mmHg 69%
10:00 +25°C° 0 mm 4 m/S 741 mmHg 63%
11:00 +26°C° 0 mm 4 m/S 740 mmHg 60%
12:00 +26°C° 0 mm 4 m/S 740 mmHg 58%
13:00 +27°C° 0 mm 4 m/S 740 mmHg 55%
14:00 +27°C° 0 mm 4 m/S 740 mmHg 55%
15:00 +27°C° 0 mm 4 m/S 740 mmHg 55%
16:00 +27°C° 0 mm 4 m/S 739 mmHg 55%
17:00 +26°C° 0 mm 3 m/S 739 mmHg 62%
18:00 +25°C° 0 mm 3 m/S 739 mmHg 68%
19:00 +23°C° 0 mm 2 m/S 739 mmHg 75%
20:00 +21°C° 0 mm 2 m/S 739 mmHg 78%
21:00 +19°C° 0 mm 2 m/S 739 mmHg 81%
22:00 +17°C° 0 mm 2 m/S 739 mmHg 84%
23:00 +17°C° 0 mm 2 m/S 739 mmHg 86%

18 Juni, Freitag

Zeit Temperatur Niederschläge Wind Luftdruck Luftfeuchtigkeit
00:00 +17°C° 0 mm 2 m/S 739 mmHg 88%
01:00 +16°C° 0 mm 1 m/S 739 mmHg 89%
02:00 +16°C° 0 mm 1 m/S 739 mmHg 89%
03:00 +16°C° 0 mm 1 m/S 739 mmHg 88%
04:00 +16°C° 0 mm 1 m/S 739 mmHg 88%
05:00 +19°C° 0 mm 1 m/S 739 mmHg 82%
06:00 +21°C° 0 mm 1 m/S 739 mmHg 77%
07:00 +23°C° 0 mm 1 m/S 739 mmHg 72%
08:00 +24°C° 0 mm 2 m/S 739 mmHg 67%
09:00 +26°C° 0 mm 2 m/S 739 mmHg 63%
10:00 +27°C° 0 mm 3 m/S 739 mmHg 59%
11:00 +28°C° 0 mm 3 m/S 739 mmHg 57%
12:00 +28°C° 0 mm 3 m/S 739 mmHg 56%
13:00 +29°C° 0 mm 3 m/S 739 mmHg 54%
14:00 +29°C° 0.1 mm 3 m/S 739 mmHg 55%
15:00 +29°C° 0.1 mm 3 m/S 739 mmHg 56%
16:00 +28°C° 0.1 mm 3 m/S 739 mmHg 57%
17:00 +27°C° 0.1 mm 2 m/S 739 mmHg 62%
18:00 +26°C° 0.1 mm 2 m/S 739 mmHg 67%
19:00 +25°C° 0.1 mm 1 m/S 739 mmHg 72%
20:00 +24°C° 0 mm 1 m/S 739 mmHg 77%
21:00 +23°C° 0 mm 1 m/S 739 mmHg 81%
22:00 +20°C° 0 mm 2 m/S 739 mmHg 85%
23:00 +21°C° 0 mm 1 m/S 739 mmHg 87%

19 Juni, Samstag

Zeit Temperatur Niederschläge Wind Luftdruck Luftfeuchtigkeit
00:00 +20°C° 0 mm 1 m/S 740 mmHg 89%
01:00 +20°C° 0 mm 1 m/S 740 mmHg 91%
02:00 +19°C° 0 mm 1 m/S 740 mmHg 93%
03:00 +19°C° 0 mm 1 m/S 739 mmHg 94%
04:00 +19°C° 0 mm 1 m/S 739 mmHg 95%
05:00 +20°C° 0 mm 1 m/S 740 mmHg 90%
06:00 +20°C° 0 mm 2 m/S 740 mmHg 86%
07:00 +23°C° 0 mm 2 m/S 740 mmHg 82%
08:00 +24°C° 0 mm 2 m/S 740 mmHg 76%
09:00 +26°C° 0 mm 3 m/S 740 mmHg 70%
10:00 +27°C° 0 mm 3 m/S 740 mmHg 65%
11:00 +28°C° 0 mm 4 m/S 740 mmHg 61%
12:00 +28°C° 0 mm 4 m/S 740 mmHg 57%
13:00 +29°C° 0 mm 5 m/S 739 mmHg 53%
14:00 +29°C° 0 mm 4 m/S 739 mmHg 52%
15:00 +29°C° 0 mm 4 m/S 739 mmHg 51%
16:00 +29°C° 0 mm 3 m/S 739 mmHg 51%
17:00 +28°C° 0 mm 3 m/S 739 mmHg 59%
18:00 +27°C° 0 mm 3 m/S 739 mmHg 66%
19:00 +25°C° 0 mm 3 m/S 739 mmHg 74%
20:00 +24°C° 0 mm 2 m/S 739 mmHg 79%
21:00 +21°C° 0 mm 2 m/S 739 mmHg 83%
22:00 +20°C° 0 mm 2 m/S 739 mmHg 87%
23:00 +20°C° 0 mm 1 m/S 739 mmHg 89%
Mehr zeigen

Wir brauchen deine Erlaubnis

Meteoprog und unser Service Anbieter werden persönliche Daten aufbewahren, so wie Cookies, Geräte Bezeichnung oder ähnliche Technologien von deinem Gerät und Prozess, so wie Persönliche Daten Inhalte und Werbungen, genauso wie social Media und den Verkehr zu analysieren.

  • Aufbewahrung und/oder Zugang zu deiner Geräte Informationen.

    Cookies, Geräte Bezeichnung oder andere Informationen, können aufbewahrt oder Zugang zu deinem Gerät erhalten, für den Grund, der oben angegeben wird.

  • Personalisierte Werbung und Inhalte, Messungen, Einblick in das Publikum und Produkt Entwicklung.

    Werbungen und Inhalte können personalisiert werden, basierend auf ein Profil. Mehr Daten können besser personalisierte Werbungen und Inhalte hinzufügen. Werbung und Inhalte können gezeigt und gemessen werden. Einblicke über das Publikum, welche die Werbung gesehen haben und den Inhalt, können abgeleitet werden. So wie Daten können genutzt werden, um es zu verbessern oder die Benutzer Erfahrung zu verbessern das System und die Software.

Wenn du “Ich stimme zu” klickst, erlaubst du uns, die Cookies zu benutzen die Geräte Bezeichnung, den Web oder ähnliche Technologien zu benutzen. Deine Settings, können in deinem Gerät bei deinem Browser geändert werden.

Für den bestimmten Zweck, berechtigten Interessen beruhen darauf, mehr als auf den Inhalt. Du kannst mehr darüber in unseren Privaten und Cookie Politik lesen.